Home > Weather > Wilhelmshaven > Past weeks

Flag for Germany Past Weather in Wilhelmshaven, Lower Saxony, Germany — Yesterday and Last 2 Weeks

Now
70 °F

Broken clouds.


Feels Like: 70 °F
Forecast: 59 / 69 °F
Wind: 5 mph from Southwest

Location: Wittmundhaven

Current Time: Jul 25, 2016 at 10:21:07 AM

Latest Report: Jul 25, 2016 at 9:46 AM


Visibility: 4 mi

Pressure: 30.04 "Hg

Humidity: 78%

Dew Point: 63 °F

Location of WilhelmshavenLocation

Past Weather in Wilhelmshaven — Graph

°F

Wilhelmshaven Temperature Yesterday

Maximum temperature yesterday: 79 °F (at 5:20 PM)
Minimum temperature yesterday: 63 °F (at 12:20 AM)
Average temperature yesterday: 67 °F

High & Low Weather Summary for the Past Weeks

 TemperatureHumidityPressure
High88 °F (Jul 20, 4:20 PM)100% (Jul 13, 12:20 AM)30.24 "Hg (Jul 13, 12:20 AM)
Low50 °F (Jul 14, 3:20 AM)40% (Jul 20, 6:20 PM)29.68 "Hg (Jul 11, 2:20 AM)
Average65 °F81%30.01 "Hg
* Reported Jul 10 8:20 AM — Jul 25 8:46 AM, Wilhelmshaven, Weather by CustomWeather, © 2016

Note: Actual official high and low records may vary slightly from our data, if they occured in-between our weather recording intervals... More about our weather records

Advertising

Wilhelmshaven Weather History for the Previous 24 Hours

Scroll right to see more
 ConditionsComfort  
Time TempWeatherWind HumidityBarometerVisibility
8:46 AM
Mon, Jul 25
68 °FFog.5 mph94%30.04 "Hg2 mi
8:20 AM68 °FFog.3 mph94%30.04 "Hg1 mi
7:20 AM64 °FFog.2 mph100%30.04 "Hg1 mi
6:20 AM63 °FMild.No wind100%30.04 "Hg1 mi
5:20 AM63 °FMild.2 mph100%30.04 "Hg0 mi
4:20 AM63 °FMild.2 mph100%30.07 "Hg0 mi
3:20 AM63 °FMild.1 mph100%30.07 "Hg0 mi
2:20 AM63 °FMild.3 mph100%30.07 "Hg0 mi
1:20 AM64 °FMild.1 mph100%30.07 "Hg1 mi
12:20 AM64 °FMild.2 mph100%30.07 "Hg1 mi
11:20 PM
Sun, Jul 24
64 °FMild.2 mph100%30.07 "Hg1 mi
10:20 PM66 °FMild.3 mph94%30.07 "Hg2 mi
9:20 PM68 °FMild.3 mph94%30.07 "Hg2 mi
8:20 PM70 °FMild.5 mph88%30.07 "Hg2 mi
7:20 PM72 °FMild.7 mph83%30.07 "Hg2 mi
6:20 PM73 °FMild.8 mph83%30.07 "Hg3 mi
5:20 PM79 °FWarm.2 mph65%30.07 "Hg3 mi
4:20 PM75 °FMild.3 mph74%30.09 "Hg3 mi
3:20 PM75 °FMild.2 mph74%30.09 "Hg2 mi
2:20 PM75 °FMild.3 mph74%30.09 "Hg2 mi
1:20 PM72 °FMild.2 mph78%30.09 "Hg2 mi
12:20 PM68 °FMild.2 mph94%30.09 "Hg2 mi
11:20 AM66 °FMild.3 mph94%30.12 "Hg2 mi
10:20 AM64 °FMild.6 mph100%30.09 "Hg2 mi
Weather by CustomWeather, © 2016

See weather overviewHow to use our weather pages